EN

Hourly Weather Barreiro do Jaiba

Today, 28 January, Thursday

Time Temperature Precipitation Wind Pressure Humidity
00:00 +21°C° 0 mm 2 mps 717 mmHg 62%
01:00 +21°C° 0 mm 1 mps 717 mmHg 67%
02:00 +21°C° 0 mm 1 mps 717 mmHg 72%
03:00 +20°C° 0 mm 1 mps 716 mmHg 78%
04:00 +20°C° 0 mm 1 mps 717 mmHg 81%
05:00 +19°C° 0 mm 1 mps 717 mmHg 85%
06:00 +19°C° 0 mm 1 mps 717 mmHg 89%
07:00 +22°C° 0 mm 1 mps 718 mmHg 77%
08:00 +25°C° 0 mm 2 mps 719 mmHg 65%
09:00 +28°C° 0 mm 2 mps 719 mmHg 53%
10:00 +30°C° 0 mm 2 mps 719 mmHg 46%
11:00 +32°C° 0 mm 2 mps 719 mmHg 39%
12:00 +35°C° 0 mm 2 mps 718 mmHg 31%
13:00 +36°C° 0 mm 2 mps 718 mmHg 29%
14:00 +36°C° 0 mm 3 mps 717 mmHg 28%
15:00 +37°C° 0 mm 3 mps 716 mmHg 26%
16:00 +35°C° 0 mm 3 mps 716 mmHg 31%
17:00 +33°C° 0 mm 3 mps 716 mmHg 35%
18:00 +31°C° 0 mm 3 mps 715 mmHg 40%
19:00 +30°C° 0 mm 2 mps 716 mmHg 41%
20:00 +28°C° 0 mm 2 mps 716 mmHg 42%
21:00 +27°C° 0 mm 2 mps 717 mmHg 44%
22:00 +26°C° 0 mm 2 mps 717 mmHg 47%
23:00 +26°C° 0 mm 2 mps 717 mmHg 50%

Tomorrow, 29 January, Friday

Time Temperature Precipitation Wind Pressure Humidity
00:00 +25°C° 0 mm 2 mps 717 mmHg 53%
01:00 +24°C° 0 mm 2 mps 717 mmHg 61%
02:00 +23°C° 0 mm 1 mps 717 mmHg 69%
03:00 +21°C° 0 mm 1 mps 716 mmHg 77%
04:00 +21°C° 0 mm 1 mps 717 mmHg 81%
05:00 +21°C° 0 mm 1 mps 717 mmHg 84%
06:00 +20°C° 0 mm 1 mps 717 mmHg 88%
07:00 +23°C° 0 mm 1 mps 718 mmHg 77%
08:00 +26°C° 0 mm 2 mps 719 mmHg 65%
09:00 +29°C° 0 mm 2 mps 719 mmHg 54%
10:00 +31°C° 0 mm 2 mps 719 mmHg 47%
11:00 +34°C° 0 mm 2 mps 719 mmHg 39%
12:00 +37°C° 0 mm 2 mps 719 mmHg 32%
13:00 +37°C° 0 mm 2 mps 718 mmHg 29%
14:00 +38°C° 0 mm 2 mps 717 mmHg 27%
15:00 +38°C° 0 mm 2 mps 716 mmHg 24%
16:00 +36°C° 0 mm 2 mps 716 mmHg 28%
17:00 +35°C° 0 mm 3 mps 716 mmHg 33%
18:00 +33°C° 0 mm 3 mps 716 mmHg 37%
19:00 +30°C° 0 mm 3 mps 716 mmHg 42%
20:00 +29°C° 0 mm 4 mps 716 mmHg 47%
21:00 +28°C° 0 mm 4 mps 717 mmHg 52%
22:00 +27°C° 0 mm 4 mps 717 mmHg 57%
23:00 +26°C° 0 mm 3 mps 717 mmHg 62%

Day after tomorrow, 30 January, Saturday

Time Temperature Precipitation Wind Pressure Humidity
00:00 +25°C° 0 mm 2 mps 718 mmHg 67%
01:00 +24°C° 0 mm 2 mps 718 mmHg 72%
02:00 +23°C° 0 mm 2 mps 718 mmHg 77%
03:00 +22°C° 0 mm 1 mps 718 mmHg 82%
04:00 +22°C° 0 mm 1 mps 718 mmHg 81%
05:00 +22°C° 0 mm 1 mps 718 mmHg 81%
06:00 +22°C° 0 mm 1 mps 719 mmHg 81%
07:00 +24°C° 0 mm 2 mps 719 mmHg 68%
08:00 +26°C° 0 mm 2 mps 720 mmHg 56%
09:00 +29°C° 0 mm 3 mps 720 mmHg 44%
10:00 +31°C° 0 mm 3 mps 720 mmHg 39%
11:00 +34°C° 0 mm 3 mps 720 mmHg 34%
12:00 +36°C° 0 mm 3 mps 719 mmHg 29%
13:00 +37°C° 0 mm 3 mps 719 mmHg 28%
14:00 +37°C° 0 mm 3 mps 718 mmHg 27%
15:00 +38°C° 0 mm 3 mps 717 mmHg 26%
16:00 +36°C° 0 mm 3 mps 717 mmHg 31%
17:00 +34°C° 0 mm 3 mps 716 mmHg 36%
18:00 +33°C° 0 mm 3 mps 716 mmHg 41%
19:00 +30°C° 0 mm 3 mps 717 mmHg 46%
20:00 +29°C° 0 mm 3 mps 717 mmHg 50%
21:00 +27°C° 0 mm 3 mps 717 mmHg 54%
22:00 +27°C° 0 mm 3 mps 718 mmHg 58%
23:00 +26°C° 0 mm 3 mps 718 mmHg 61%

31 January, Sunday

Time Temperature Precipitation Wind Pressure Humidity
00:00 +25°C° 0 mm 3 mps 718 mmHg 64%
01:00 +24°C° 0 mm 3 mps 718 mmHg 70%
02:00 +23°C° 0 mm 2 mps 718 mmHg 76%
03:00 +22°C° 0 mm 1 mps 718 mmHg 82%
04:00 +22°C° 0 mm 1 mps 718 mmHg 85%
05:00 +21°C° 0 mm 1 mps 718 mmHg 87%
06:00 +21°C° 0 mm 1 mps 718 mmHg 90%
07:00 +23°C° 0 mm 2 mps 719 mmHg 77%
08:00 +26°C° 0 mm 2 mps 719 mmHg 64%
09:00 +29°C° 0 mm 3 mps 720 mmHg 51%
10:00 +31°C° 0 mm 3 mps 720 mmHg 44%
11:00 +34°C° 0 mm 3 mps 719 mmHg 37%
12:00 +36°C° 0 mm 3 mps 719 mmHg 31%
13:00 +36°C° 0 mm 3 mps 718 mmHg 29%
14:00 +37°C° 0 mm 3 mps 718 mmHg 28%
15:00 +37°C° 0 mm 3 mps 717 mmHg 26%
16:00 +36°C° 0 mm 3 mps 716 mmHg 31%
17:00 +34°C° 0 mm 2 mps 716 mmHg 35%
18:00 +32°C° 0 mm 2 mps 716 mmHg 40%
19:00 +30°C° 0 mm 3 mps 716 mmHg 46%
20:00 +29°C° 0 mm 3 mps 717 mmHg 52%
21:00 +27°C° 0 mm 3 mps 717 mmHg 58%
22:00 +26°C° 0 mm 3 mps 717 mmHg 61%
23:00 +26°C° 0 mm 3 mps 717 mmHg 64%

1 February, Monday

Time Temperature Precipitation Wind Pressure Humidity
00:00 +25°C° 0 mm 3 mps 717 mmHg 67%
01:00 +24°C° 0 mm 2 mps 717 mmHg 72%
02:00 +23°C° 0 mm 1 mps 717 mmHg 76%
03:00 +22°C° 0 mm 1 mps 717 mmHg 81%
04:00 +22°C° 0 mm 1 mps 717 mmHg 83%
05:00 +21°C° 0 mm 1 mps 717 mmHg 84%
06:00 +21°C° 0 mm 1 mps 718 mmHg 86%
07:00 +24°C° 0 mm 2 mps 718 mmHg 73%
08:00 +27°C° 0 mm 2 mps 719 mmHg 60%
09:00 +29°C° 0 mm 2 mps 719 mmHg 47%
10:00 +31°C° 0 mm 2 mps 719 mmHg 41%
11:00 +34°C° 0 mm 2 mps 718 mmHg 35%
12:00 +36°C° 0 mm 2 mps 718 mmHg 29%
13:00 +37°C° 0 mm 2 mps 717 mmHg 27%
14:00 +37°C° 0 mm 2 mps 716 mmHg 26%
15:00 +38°C° 0 mm 2 mps 716 mmHg 24%
16:00 +36°C° 0 mm 2 mps 715 mmHg 28%
17:00 +35°C° 0 mm 2 mps 715 mmHg 31%
18:00 +32°C° 0 mm 2 mps 715 mmHg 35%
19:00 +31°C° 0 mm 3 mps 716 mmHg 38%
20:00 +29°C° 0 mm 3 mps 716 mmHg 41%
21:00 +27°C° 0 mm 3 mps 717 mmHg 45%
22:00 +27°C° 0 mm 3 mps 717 mmHg 51%
23:00 +26°C° 0 mm 3 mps 717 mmHg 56%

2 February, Tuesday

Time Temperature Precipitation Wind Pressure Humidity
00:00 +25°C° 0 mm 2 mps 718 mmHg 62%
01:00 +24°C° 0 mm 2 mps 717 mmHg 68%
02:00 +23°C° 0 mm 2 mps 717 mmHg 73%
03:00 +22°C° 0 mm 1 mps 717 mmHg 79%
04:00 +22°C° 0 mm 1 mps 717 mmHg 82%
05:00 +21°C° 0 mm 1 mps 717 mmHg 86%
06:00 +21°C° 0 mm 1 mps 717 mmHg 89%
07:00 +23°C° 0 mm 1 mps 718 mmHg 77%
08:00 +26°C° 0 mm 2 mps 719 mmHg 65%
09:00 +29°C° 0 mm 2 mps 720 mmHg 53%
10:00 +31°C° 0 mm 2 mps 719 mmHg 46%
11:00 +34°C° 0 mm 2 mps 719 mmHg 39%
12:00 +37°C° 0 mm 2 mps 719 mmHg 32%
13:00 +36°C° 0 mm 2 mps 718 mmHg 32%
14:00 +36°C° 0 mm 2 mps 717 mmHg 32%
15:00 +35°C° 0 mm 2 mps 716 mmHg 32%
16:00 +35°C° 0 mm 2 mps 716 mmHg 35%
17:00 +34°C° 0 mm 2 mps 716 mmHg 37%
18:00 +32°C° 0 mm 2 mps 716 mmHg 40%
19:00 +30°C° 0 mm 2 mps 716 mmHg 44%
20:00 +29°C° 0 mm 2 mps 717 mmHg 47%
21:00 +28°C° 0 mm 2 mps 718 mmHg 51%
22:00 +27°C° 0 mm 2 mps 718 mmHg 56%
23:00 +26°C° 0 mm 2 mps 718 mmHg 62%
Show more

We Need Your Consent

Meteoprog and our Service Providers may store and access personal data such as cookies, device identifiers or other similar technologies on your device and process such data to personalise content and ads, as well as provide social media features and to analyse the traffic.

  • Store and/or access information on your device

    Cookies, device identifiers or other information can be stored or accessed on your device for the purposes indicated above.

  • Personalised ads and content, ad and content measurement, audience insights, and products development

    Ads and content can be personalised based on a profile. More data can be added to better personalise ads and content. Ad and content performance can be measured. Insights about the audience who saw the ads and content can be derived. Such data can be used to develop or improve user’s experience, systems and software.

By clicking ‘I Agree’ you will allow the use of indicated cookies, device identifiers, web beacons or other similar technologies. Your settings can be changed in the browser on your device.

For certain purposes, legitimate interests may be relied on, rather than consent. You can read more about this in our Privacy and Cookie Policy.